EW6754 Weather Reports


Display with metric or nautical units.
time (UTC)temp
F
wind
direction
speed
MPH
gust
MPH
rain 1hr
in
rain 24hr
in
rain mn
in
humidity
%
barometer
mb
20260502201538 88 139 0.0 4.0 0.00 0.00 0.00 63 1012.9
20260502200032 88 93 0.0 3.0 0.00 0.00 0.00 63 1012.8
20260502194533 88 91 0.0 0.0 0.00 0.00 0.00 59 1012.9
20260502193030 88 146 0.0 9.0 0.00 0.00 0.00 59 1013.0
20260502191529 87 169 0.0 0.0 0.00 0.00 0.00 62 1013.2
20260502190035 87 150 0.0 14.0 0.00 0.00 0.00 60 1013.3
20260502184536 87 113 0.0 11.0 0.00 0.00 0.00 63 1013.4
20260502183030 88 148 0.0 12.0 0.00 0.00 0.00 59 1013.6
20260502181533 87 141 0.0 7.0 0.00 0.00 0.00 61 1013.8
20260502163019 88 86 0.0 11.0 0.00 0.00 0.00 65 1014.9
20260502161518 88 94 0.0 0.0 0.00 0.00 0.00 64 1015.0
20260502151515 88 155 3.0 10.0 0.00 0.00 0.00 64 1015.7
20260502130107 82 96 0.0 0.0 0.00 0.00 0.00 79 1015.5
20260502123055 81 108 0.0 0.0 0.00 0.00 0.00 80 1015.3
20260502121555 80 139 0.0 0.0 0.00 0.00 0.00 81 1015.1
20260502114546 79 172 0.0 0.0 0.00 0.00 0.00 81 1014.8
20260502113043 78 167 0.0 0.0 0.00 0.00 0.00 82 1014.6
20260502111539 77 167 0.0 0.0 0.00 0.00 0.00 82 1014.4
20260502110037 76 167 0.0 0.0 0.00 0.00 0.00 81 1014.3
20260502104534 74 167 0.0 0.0 0.00 0.00 0.00 75 1014.3
20260502103040 74 167 0.0 0.0 0.00 0.00 0.00 72 1014.1
20260502101542 73 169 0.0 0.0 0.00 0.00 0.00 71 1014.1
20260502091531 73 230 0.0 0.0 0.00 0.00 0.00 69 1013.2
20260502071515 76 212 0.0 0.0 0.00 0.00 0.00 76 1012.8
20260502070015 76 212 0.0 0.0 0.00 0.00 0.00 75 1012.9
20260502064512 75 212 0.0 0.0 0.00 0.00 0.00 73 1012.8
20260502063022 75 212 0.0 0.0 0.00 0.00 0.00 71 1012.9
20260502061507 75 212 0.0 0.0 0.00 0.00 0.00 72 1013.0
20260502060005 75 212 0.0 0.0 0.00 0.00 0.00 72 1013.1
20260502054503 75 212 0.0 0.0 0.00 0.00 0.00 73 1013.1
20260502053002 75 212 0.0 0.0 0.00 0.00 0.00 74 1013.2
20260502051618 75 212 0.0 0.0 0.00 0.00 0.00 75 1013.3
20260502044555 76 211 0.0 0.0 0.00 0.00 0.00 77 1013.7
20260502043057 76 211 0.0 0.0 0.00 0.00 0.00 76 1013.9
20260502041610 76 210 0.0 0.0 0.00 0.00 0.00 76 1014.0
20260502040046 76 173 0.0 0.0 0.00 0.00 0.00 76 1014.1
20260502034545 77 180 0.0 0.0 0.00 0.00 0.00 78 1014.1
20260502033059 77 201 0.0 0.0 0.00 0.00 0.00 79 1014.1
20260502031544 77 156 0.0 0.0 0.00 0.00 0.00 79 1014.1
20260502030042 77 156 0.0 0.0 0.00 0.00 0.00 80 1014.1
20260502024541 78 156 0.0 0.0 0.00 0.00 0.00 80 1014.0
20260502023042 78 156 0.0 0.0 0.00 0.00 0.00 81 1013.9
20260502021540 78 156 0.0 0.0 0.00 0.00 0.00 80 1013.6
20260502020040 78 156 0.0 0.0 0.00 0.00 0.00 80 1013.6
20260502014539 78 156 0.0 0.0 0.00 0.00 0.00 80 1013.5
20260502013038 78 156 0.0 0.0 0.00 0.00 0.00 79 1013.3
20260502011538 78 85 0.0 0.0 0.00 0.00 0.00 79 1013.2
20260502010037 78 27 0.0 0.0 0.00 0.00 0.00 80 1013.1
20260502004538 78 172 0.0 0.0 0.00 0.00 0.00 81 1013.0
20260502003037 78 172 0.0 0.0 0.00 0.00 0.00 81 1012.9
20260502001636 79 91 0.0 0.0 0.00 0.00 0.00 81 1012.8
20260502000034 80 113 0.0 0.0 0.00 0.00 0.00 81 1012.6
20260501234533 80 97 0.0 0.0 0.00 0.00 0.00 81 1012.4
20260501233031 80 148 0.0 0.0 0.00 0.00 0.00 81 1012.4
20260501231546 81 139 0.0 0.0 0.00 0.00 0.00 80 1012.2
20260501230028 81 103 0.0 0.0 0.00 0.00 0.00 80 1012.0
20260501224526 81 246 0.0 0.0 0.00 0.00 0.00 79 1012.0
20260501223032 82 103 0.0 0.0 0.00 0.00 0.00 78 1011.8
20260501221524 82 131 0.0 0.0 0.00 0.00 0.00 77 1011.6
20260501220016 82 167 0.0 0.0 0.00 0.00 0.00 77 1011.5
20260501214512 83 124 0.0 0.0 0.00 0.00 0.00 77 1011.5
20260501213007 84 133 0.0 0.0 0.00 0.00 0.00 75 1011.4
20260501211508 84 69 0.0 0.0 0.00 0.00 0.00 73 1011.5
20260501210007 84 103 0.0 0.0 0.00 0.00 0.00 72 1011.3
20260501204506 84 108 0.0 0.0 0.00 0.00 0.00 72 1011.6
20260501203006 85 79 0.0 0.0 0.00 0.00 0.00 69 1011.2